Hourly Weather Kraczkowa

Today, 29 October, Thursday

Time Temperature Precipitation Wind Pressure Humidity
00:00 +11°C° 0 mm 1 mps 741 mmHg 91%
01:00 +10°C° 0 mm 2 mps 741 mmHg 94%
02:00 +10°C° 0.1 mm 2 mps 741 mmHg 93%
03:00 +10°C° 0.1 mm 2 mps 741 mmHg 93%
04:00 +10°C° 0.1 mm 2 mps 741 mmHg 93%
05:00 +10°C° 0.1 mm 2 mps 741 mmHg 93%
06:00 +10°C° 0.1 mm 2 mps 741 mmHg 93%
07:00 +10°C° 0 mm 2 mps 741 mmHg 94%
08:00 +12°C° 0 mm 2 mps 741 mmHg 87%
09:00 +13°C° 0 mm 3 mps 741 mmHg 80%
10:00 +14°C° 0 mm 3 mps 741 mmHg 73%
11:00 +14°C° 0 mm 3 mps 741 mmHg 71%
12:00 +14°C° 0 mm 3 mps 741 mmHg 68%
13:00 +15°C° 0 mm 4 mps 741 mmHg 66%
14:00 +14°C° 0.1 mm 3 mps 740 mmHg 69%
15:00 +13°C° 0.1 mm 3 mps 740 mmHg 73%
16:00 +13°C° 0.1 mm 3 mps 740 mmHg 77%
17:00 +12°C° 0.4 mm 3 mps 741 mmHg 80%
18:00 +11°C° 0.4 mm 3 mps 741 mmHg 84%
19:00 +11°C° 0.4 mm 3 mps 741 mmHg 87%
20:00 +11°C° 0.4 mm 3 mps 741 mmHg 86%
21:00 +10°C° 0.4 mm 4 mps 741 mmHg 86%
22:00 +10°C° 0.4 mm 4 mps 742 mmHg 85%
23:00 +10°C° 0.1 mm 4 mps 742 mmHg 83%

Tomorrow, 30 October, Friday

Time Temperature Precipitation Wind Pressure Humidity
00:00 +8°C° 0.1 mm 4 mps 742 mmHg 82%
01:00 +8°C° 0.1 mm 5 mps 743 mmHg 80%
02:00 +7°C° 0 mm 4 mps 743 mmHg 83%
03:00 +6°C° 0 mm 4 mps 743 mmHg 86%
04:00 +5°C° 0 mm 3 mps 743 mmHg 88%
05:00 +5°C° 0 mm 3 mps 743 mmHg 89%
06:00 +5°C° 0 mm 3 mps 744 mmHg 89%
07:00 +5°C° 0 mm 3 mps 744 mmHg 89%
08:00 +7°C° 0 mm 3 mps 744 mmHg 83%
09:00 +8°C° 0 mm 3 mps 744 mmHg 76%
10:00 +10°C° 0 mm 3 mps 744 mmHg 70%
11:00 +10°C° 0 mm 3 mps 744 mmHg 67%
12:00 +11°C° 0 mm 3 mps 744 mmHg 64%
13:00 +11°C° 0 mm 3 mps 743 mmHg 61%
14:00 +11°C° 0 mm 3 mps 743 mmHg 64%
15:00 +10°C° 0 mm 3 mps 743 mmHg 68%
16:00 +10°C° 0 mm 3 mps 742 mmHg 72%
17:00 +8°C° 0.5 mm 4 mps 742 mmHg 77%
18:00 +8°C° 0.5 mm 4 mps 742 mmHg 82%
19:00 +8°C° 0.5 mm 4 mps 742 mmHg 87%
20:00 +8°C° 1.8 mm 5 mps 741 mmHg 89%
21:00 +8°C° 1.8 mm 5 mps 741 mmHg 91%
22:00 +8°C° 1.8 mm 5 mps 741 mmHg 93%
23:00 +8°C° 1.4 mm 5 mps 741 mmHg 94%

Day after tomorrow, 31 October, Saturday

Time Temperature Precipitation Wind Pressure Humidity
00:00 +10°C° 1.4 mm 4 mps 741 mmHg 94%
01:00 +10°C° 1.4 mm 4 mps 741 mmHg 95%
02:00 +8°C° 0.2 mm 4 mps 741 mmHg 95%
03:00 +8°C° 0.2 mm 3 mps 742 mmHg 95%
04:00 +8°C° 0.2 mm 3 mps 742 mmHg 95%
05:00 +8°C° 0 mm 3 mps 743 mmHg 95%
06:00 +7°C° 0 mm 3 mps 743 mmHg 96%
07:00 +7°C° 0 mm 3 mps 744 mmHg 96%
08:00 +8°C° 0 mm 3 mps 744 mmHg 90%
09:00 +8°C° 0 mm 3 mps 745 mmHg 84%
10:00 +9°C° 0 mm 3 mps 745 mmHg 79%
11:00 +10°C° 0 mm 4 mps 745 mmHg 76%
12:00 +10°C° 0 mm 4 mps 745 mmHg 74%
13:00 +10°C° 0 mm 4 mps 745 mmHg 72%
14:00 +10°C° 0.1 mm 4 mps 746 mmHg 74%
15:00 +9°C° 0.1 mm 3 mps 746 mmHg 76%
16:00 +9°C° 0.1 mm 3 mps 746 mmHg 78%
17:00 +8°C° 0 mm 3 mps 746 mmHg 81%
18:00 +7°C° 0 mm 2 mps 747 mmHg 83%
19:00 +6°C° 0 mm 2 mps 747 mmHg 86%
20:00 +6°C° 0 mm 2 mps 747 mmHg 87%
21:00 +6°C° 0 mm 1 mps 747 mmHg 89%
22:00 +6°C° 0 mm 1 mps 747 mmHg 90%
23:00 +6°C° 0 mm 1 mps 747 mmHg 91%

1 November, Sunday

Time Temperature Precipitation Wind Pressure Humidity
00:00 +5°C° 0 mm 1 mps 747 mmHg 92%
01:00 +4°C° 0 mm 0 mps 748 mmHg 94%
02:00 +4°C° 0 mm 0 mps 747 mmHg 94%
03:00 +4°C° 0 mm 0 mps 747 mmHg 94%
04:00 +5°C° 0 mm 1 mps 747 mmHg 95%
05:00 +4°C° 0 mm 0 mps 747 mmHg 95%
06:00 +4°C° 0 mm 0 mps 747 mmHg 95%
07:00 +4°C° 0 mm 0 mps 747 mmHg 95%
08:00 +5°C° 0 mm 0 mps 747 mmHg 90%
09:00 +7°C° 0 mm 0 mps 747 mmHg 84%
10:00 +9°C° 0 mm 1 mps 747 mmHg 78%
11:00 +10°C° 0 mm 1 mps 747 mmHg 74%
12:00 +11°C° 0 mm 1 mps 747 mmHg 70%
13:00 +10°C° 0 mm 2 mps 746 mmHg 66%
14:00 +9°C° 0 mm 2 mps 746 mmHg 72%
15:00 +9°C° 0 mm 2 mps 746 mmHg 77%
16:00 +8°C° 0 mm 2 mps 746 mmHg 82%
17:00 +7°C° 0 mm 2 mps 746 mmHg 85%
18:00 +6°C° 0 mm 2 mps 746 mmHg 88%
19:00 +6°C° 0 mm 2 mps 746 mmHg 90%
20:00 +6°C° 0 mm 2 mps 745 mmHg 91%
21:00 +5°C° 0 mm 2 mps 745 mmHg 91%
22:00 +5°C° 0 mm 2 mps 745 mmHg 92%
23:00 +5°C° 0 mm 2 mps 745 mmHg 91%

2 November, Monday

Time Temperature Precipitation Wind Pressure Humidity
00:00 +5°C° 0 mm 2 mps 745 mmHg 91%
01:00 +4°C° 0 mm 2 mps 745 mmHg 90%
02:00 +4°C° 0 mm 2 mps 745 mmHg 90%
03:00 +4°C° 0 mm 2 mps 745 mmHg 89%
04:00 +4°C° 0 mm 2 mps 745 mmHg 88%
05:00 +4°C° 0 mm 2 mps 745 mmHg 88%
06:00 +4°C° 0 mm 2 mps 744 mmHg 87%
07:00 +4°C° 0 mm 2 mps 744 mmHg 87%
08:00 +5°C° 0 mm 2 mps 744 mmHg 82%
09:00 +7°C° 0 mm 2 mps 744 mmHg 76%
10:00 +9°C° 0 mm 3 mps 744 mmHg 71%
11:00 +10°C° 0 mm 3 mps 744 mmHg 69%
12:00 +11°C° 0 mm 3 mps 744 mmHg 67%
13:00 +12°C° 0 mm 3 mps 744 mmHg 65%
14:00 +11°C° 0 mm 3 mps 744 mmHg 70%
15:00 +10°C° 0 mm 3 mps 743 mmHg 75%
16:00 +9°C° 0 mm 2 mps 743 mmHg 81%
17:00 +8°C° 0 mm 2 mps 743 mmHg 82%
18:00 +8°C° 0 mm 2 mps 744 mmHg 84%
19:00 +7°C° 0 mm 2 mps 744 mmHg 86%
20:00 +7°C° 0 mm 2 mps 744 mmHg 86%
21:00 +7°C° 0 mm 2 mps 743 mmHg 85%
22:00 +8°C° 0 mm 2 mps 743 mmHg 85%
23:00 +8°C° 0 mm 2 mps 743 mmHg 85%

3 November, Tuesday

Time Temperature Precipitation Wind Pressure Humidity
00:00 +8°C° 0 mm 2 mps 743 mmHg 85%
01:00 +8°C° 0 mm 2 mps 743 mmHg 85%
02:00 +8°C° 0.4 mm 2 mps 743 mmHg 86%
03:00 +8°C° 0.4 mm 2 mps 743 mmHg 88%
04:00 +8°C° 0.4 mm 2 mps 743 mmHg 89%
05:00 +8°C° 1.2 mm 2 mps 743 mmHg 90%
06:00 +8°C° 1.2 mm 2 mps 743 mmHg 92%
07:00 +8°C° 1.2 mm 2 mps 744 mmHg 93%
08:00 +8°C° 0.4 mm 2 mps 744 mmHg 92%
09:00 +8°C° 0.4 mm 2 mps 744 mmHg 91%
10:00 +8°C° 0.4 mm 2 mps 744 mmHg 90%
11:00 +8°C° 0.1 mm 2 mps 744 mmHg 87%
12:00 +9°C° 0.1 mm 2 mps 744 mmHg 84%
13:00 +9°C° 0.1 mm 2 mps 744 mmHg 81%
14:00 +9°C° 0 mm 2 mps 744 mmHg 82%
15:00 +9°C° 0 mm 2 mps 744 mmHg 83%
16:00 +8°C° 0 mm 2 mps 744 mmHg 84%
17:00 +8°C° 0 mm 2 mps 745 mmHg 86%
18:00 +7°C° 0 mm 2 mps 745 mmHg 87%
19:00 +7°C° 0 mm 2 mps 745 mmHg 89%
20:00 +5°C° 0 mm 3 mps 746 mmHg 89%
21:00 +5°C° 0 mm 3 mps 746 mmHg 90%
22:00 +5°C° 0 mm 3 mps 746 mmHg 90%
23:00 +4°C° 0 mm 3 mps 746 mmHg 91%
Show more